GLO9628 SBGR-SBEG

Flight info

Callsign GLO9628
Flight time 3h 31m
Altitude 36000
Route GERTU UM417 EVRIV DCT PUDKA DCT MATNA DCT IRUMO
Aircraft B738/M-SDE2E3FGHIRWXY/LB1

Departure

Time 2026-04-26 20:41
Airport São Paulo/Guarulhos–Governor André Franco Montoro International Airport (SBGR)

Arrival

Time 2026-04-27 00:13
Airport Eduardo Gomes International Airport (SBEG)
Time Latitude Longitude Altitude Speed Heading
2026-04-26 19:46 -23.42843 -46.48061 2447 ft 0 kts 84°
2026-04-26 20:18 -23.42843 -46.48063 2447 ft 1 kts 84°
2026-04-26 20:18 -23.42844 -46.48076 2447 ft 1 kts 84°
2026-04-26 20:18 -23.42845 -46.48089 2447 ft 1 kts 84°
2026-04-26 20:19 -23.42847 -46.48102 2447 ft 1 kts 84°
2026-04-26 20:19 -23.42846 -46.48116 2447 ft 2 kts 117°
2026-04-26 20:19 -23.42835 -46.48129 2447 ft 2 kts 154°
2026-04-26 20:19 -23.42827 -46.48132 2447 ft 1 kts 174°
2026-04-26 20:20 -23.42820 -46.48132 2447 ft 0 kts 175°
2026-04-26 20:24 -23.42831 -46.48131 2447 ft 2 kts 175°
2026-04-26 20:24 -23.42853 -46.48129 2447 ft 3 kts 174°
2026-04-26 20:24 -23.42873 -46.48127 2447 ft 3 kts 175°
2026-04-26 20:24 -23.42897 -46.48128 2447 ft 3 kts 188°
2026-04-26 20:25 -23.42917 -46.48132 2447 ft 2 kts 196°
2026-04-26 20:25 -23.42929 -46.48136 2447 ft 3 kts 197°
2026-04-26 20:25 -23.42963 -46.48139 2447 ft 4 kts 176°
2026-04-26 20:25 -23.42997 -46.48137 2446 ft 4 kts 176°
2026-04-26 20:26 -23.43028 -46.48134 2446 ft 3 kts 174°
2026-04-26 20:26 -23.43055 -46.48131 2446 ft 4 kts 174°
2026-04-26 20:26 -23.43086 -46.48120 2446 ft 5 kts 146°
2026-04-26 20:26 -23.43100 -46.48087 2446 ft 5 kts 84°
2026-04-26 20:27 -23.43091 -46.48043 2447 ft 6 kts 73°
2026-04-26 20:27 -23.43077 -46.47994 2447 ft 7 kts 73°
2026-04-26 20:27 -23.43062 -46.47937 2447 ft 8 kts 72°
2026-04-26 20:27 -23.43042 -46.47863 2445 ft 11 kts 73°
2026-04-26 20:28 -23.43017 -46.47772 2444 ft 14 kts 72°
2026-04-26 20:28 -23.42991 -46.47676 2444 ft 15 kts 73°
2026-04-26 20:28 -23.42959 -46.47555 2444 ft 16 kts 73°
2026-04-26 20:28 -23.42928 -46.47446 2444 ft 12 kts 75°
2026-04-26 20:29 -23.42910 -46.47373 2444 ft 7 kts 74°
2026-04-26 20:29 -23.42899 -46.47334 2444 ft 4 kts 72°
2026-04-26 20:29 -23.42892 -46.47311 2445 ft 2 kts 73°
2026-04-26 20:29 -23.42886 -46.47289 2445 ft 3 kts 74°
2026-04-26 20:30 -23.42878 -46.47257 2445 ft 4 kts 74°
2026-04-26 20:30 -23.42869 -46.47222 2445 ft 4 kts 75°
2026-04-26 20:30 -23.42860 -46.47189 2445 ft 4 kts 74°
2026-04-26 20:30 -23.42852 -46.47155 2445 ft 4 kts 73°
2026-04-26 20:31 -23.42843 -46.47123 2445 ft 4 kts 73°
2026-04-26 20:31 -23.42833 -46.47086 2444 ft 5 kts 73°
2026-04-26 20:31 -23.42822 -46.47044 2444 ft 6 kts 73°
2026-04-26 20:31 -23.42806 -46.46988 2444 ft 9 kts 72°
2026-04-26 20:32 -23.42785 -46.46914 2444 ft 11 kts 72°
2026-04-26 20:32 -23.42759 -46.46820 2443 ft 14 kts 73°
2026-04-26 20:32 -23.42729 -46.46709 2444 ft 15 kts 74°
2026-04-26 20:32 -23.42704 -46.46614 2446 ft 12 kts 74°
2026-04-26 20:33 -23.42679 -46.46523 2445 ft 12 kts 73°
2026-04-26 20:33 -23.42654 -46.46431 2446 ft 12 kts 73°
2026-04-26 20:33 -23.42632 -46.46349 2448 ft 10 kts 73°
2026-04-26 20:33 -23.42613 -46.46275 2449 ft 9 kts 74°
2026-04-26 20:34 -23.42595 -46.46211 2451 ft 8 kts 73°
2026-04-26 20:34 -23.42581 -46.46155 2452 ft 7 kts 73°
2026-04-26 20:34 -23.42566 -46.46101 2452 ft 7 kts 73°
2026-04-26 20:34 -23.42551 -46.46046 2452 ft 7 kts 73°
2026-04-26 20:35 -23.42535 -46.45989 2452 ft 7 kts 73°
2026-04-26 20:35 -23.42519 -46.45931 2452 ft 8 kts 73°
2026-04-26 20:35 -23.42503 -46.45871 2452 ft 8 kts 73°
2026-04-26 20:35 -23.42486 -46.45808 2452 ft 9 kts 74°
2026-04-26 20:36 -23.42466 -46.45730 2453 ft 12 kts 74°
2026-04-26 20:36 -23.42438 -46.45633 2453 ft 15 kts 72°
2026-04-26 20:36 -23.42406 -46.45514 2454 ft 17 kts 75°
2026-04-26 20:36 -23.42371 -46.45377 2453 ft 20 kts 73°
2026-04-26 20:37 -23.42339 -46.45263 2453 ft 12 kts 73°
2026-04-26 20:37 -23.42320 -46.45193 2453 ft 6 kts 72°
2026-04-26 20:37 -23.42312 -46.45165 2453 ft 2 kts 72°
2026-04-26 20:37 -23.42311 -46.45164 2453 ft 0 kts 72°
2026-04-26 20:38 -23.42311 -46.45162 2453 ft 0 kts 73°
2026-04-26 20:38 -23.42310 -46.45162 2453 ft 0 kts 73°
2026-04-26 20:38 -23.42310 -46.45160 2453 ft 1 kts 74°
2026-04-26 20:39 -23.42313 -46.45136 2453 ft 5 kts 115°
2026-04-26 20:39 -23.42332 -46.45114 2453 ft 7 kts 148°
2026-04-26 20:39 -23.42416 -46.45092 2453 ft 11 kts 167°
2026-04-26 20:39 -23.42492 -46.45068 2453 ft 12 kts 161°
2026-04-26 20:40 -23.42545 -46.45078 2453 ft 6 kts 236°
2026-04-26 20:40 -23.42557 -46.45116 2453 ft 5 kts 256°
2026-04-26 20:40 -23.42631 -46.45390 2452 ft 72 kts 253°
2026-04-26 20:40 -23.42837 -46.46147 2449 ft 137 kts 254°
2026-04-26 20:41 -23.43862 -46.50109 3717 ft 203 kts 266°
2026-04-26 20:41 -23.43686 -46.51627 4224 ft 211 kts 296°
2026-04-26 20:42 -23.42971 -46.52989 4918 ft 210 kts 301°
2026-04-26 20:42 -23.42295 -46.54487 5221 ft 230 kts 293°
2026-04-26 20:42 -23.41779 -46.56153 5850 ft 238 kts 288°
2026-04-26 20:42 -23.41340 -46.57949 6310 ft 254 kts 285°
2026-04-26 20:43 -23.40886 -46.59845 6745 ft 270 kts 287°
2026-04-26 20:43 -23.40344 -46.61807 7582 ft 270 kts 288°
2026-04-26 20:43 -23.39786 -46.63737 8363 ft 272 kts 288°
2026-04-26 20:43 -23.39228 -46.65702 9141 ft 273 kts 287°
2026-04-26 20:44 -23.38642 -46.67673 9925 ft 274 kts 291°
2026-04-26 20:44 -23.37736 -46.69508 10354 ft 290 kts 306°
2026-04-26 20:44 -23.36275 -46.71222 10160 ft 323 kts 315°
2026-04-26 20:44 -23.34545 -46.72914 10095 ft 334 kts 317°
2026-04-26 20:45 -23.32789 -46.74613 10085 ft 337 kts 316°
2026-04-26 20:45 -23.31059 -46.76337 10085 ft 336 kts 315°
2026-04-26 20:45 -23.29357 -46.78080 10127 ft 341 kts 315°
2026-04-26 20:45 -23.27634 -46.79875 10770 ft 346 kts 315°
2026-04-26 20:46 -23.25977 -46.81613 11023 ft 346 kts 315°
2026-04-26 20:46 -23.24203 -46.83477 11083 ft 342 kts 315°
2026-04-26 20:46 -23.22510 -46.85256 11089 ft 342 kts 315°
2026-04-26 20:46 -23.20782 -46.87072 11088 ft 342 kts 315°
2026-04-26 20:47 -23.19015 -46.88783 11086 ft 341 kts 320°
2026-04-26 20:47 -23.17723 -46.89790 11082 ft 343 kts 325°
2026-04-26 20:47 -23.14989 -46.91575 11070 ft 344 kts 329°
2026-04-26 20:47 -23.12918 -46.92829 11060 ft 343 kts 329°
2026-04-26 20:48 -23.10826 -46.94101 11069 ft 343 kts 329°
2026-04-26 20:48 -23.08727 -46.95402 11069 ft 344 kts 328°
2026-04-26 20:48 -23.06642 -46.96715 11060 ft 343 kts 328°
2026-04-26 20:48 -23.04586 -46.98026 11065 ft 344 kts 327°
2026-04-26 20:49 -23.02522 -46.99349 11056 ft 343 kts 327°
2026-04-26 20:49 -23.00489 -47.00653 11045 ft 343 kts 327°
2026-04-26 20:49 -22.98411 -47.01986 11052 ft 344 kts 327°
2026-04-26 20:49 -22.96359 -47.03269 11054 ft 343 kts 330°
2026-04-26 20:50 -22.94149 -47.04250 11070 ft 350 kts 342°
2026-04-26 20:50 -22.91701 -47.04731 11862 ft 353 kts 351°
2026-04-26 20:50 -22.89264 -47.05013 12598 ft 356 kts 352°
2026-04-26 20:50 -22.86799 -47.05262 13245 ft 360 kts 352°
2026-04-26 20:51 -22.84290 -47.05531 13873 ft 365 kts 351°
2026-04-26 20:51 -22.81762 -47.05831 14493 ft 369 kts 351°
2026-04-26 20:51 -22.79183 -47.06161 15119 ft 373 kts 350°
2026-04-26 20:51 -22.76592 -47.06680 15706 ft 374 kts 342°
2026-04-26 20:52 -22.74216 -47.07756 16264 ft 374 kts 326°
2026-04-26 20:52 -22.72183 -47.09553 16856 ft 373 kts 311°
2026-04-26 20:52 -22.70590 -47.11736 17433 ft 374 kts 304°
2026-04-26 20:52 -22.69095 -47.14073 18007 ft 376 kts 302°
2026-04-26 20:53 -22.67646 -47.16426 18569 ft 378 kts 302°
2026-04-26 20:53 -22.66196 -47.18804 19094 ft 381 kts 302°
2026-04-26 20:53 -22.64732 -47.21201 19621 ft 383 kts 302°
2026-04-26 20:53 -22.63257 -47.23602 20117 ft 386 kts 302°
2026-04-26 20:54 -22.61762 -47.26026 20629 ft 387 kts 302°
2026-04-26 20:54 -22.60269 -47.28438 21116 ft 389 kts 302°
2026-04-26 20:54 -22.58755 -47.30882 21596 ft 391 kts 302°
2026-04-26 20:54 -22.57379 -47.33100 21993 ft 393 kts 302°
2026-04-26 20:55 -22.55852 -47.35560 22476 ft 395 kts 302°
2026-04-26 20:55 -22.54304 -47.38054 22909 ft 398 kts 302°
2026-04-26 20:55 -22.52751 -47.40554 23347 ft 400 kts 302°
2026-04-26 20:55 -22.51209 -47.43035 23770 ft 403 kts 302°
2026-04-26 20:56 -22.49632 -47.45572 24221 ft 405 kts 302°
2026-04-26 20:56 -22.48055 -47.48107 24681 ft 406 kts 302°
2026-04-26 20:56 -22.46480 -47.50637 25068 ft 409 kts 302°
2026-04-26 20:56 -22.44847 -47.53170 25457 ft 412 kts 304°
2026-04-26 20:57 -22.43040 -47.55587 25815 ft 417 kts 310°
2026-04-26 20:57 -22.40916 -47.57760 26210 ft 421 kts 317°
2026-04-26 20:57 -22.38588 -47.59725 26610 ft 424 kts 320°
2026-04-26 20:57 -22.36202 -47.61556 26979 ft 427 kts 322°
2026-04-26 20:58 -22.33754 -47.63360 27330 ft 429 kts 322°
2026-04-26 20:58 -22.31251 -47.65183 27703 ft 431 kts 323°
2026-04-26 20:58 -22.28757 -47.67001 28019 ft 435 kts 323°
2026-04-26 20:58 -22.26240 -47.68843 28401 ft 436 kts 323°
2026-04-26 20:59 -22.23728 -47.70692 28764 ft 438 kts 323°
2026-04-26 20:59 -22.21209 -47.72553 29101 ft 440 kts 323°
2026-04-26 20:59 -22.18666 -47.74438 29434 ft 442 kts 323°
2026-04-26 20:59 -22.16166 -47.76294 30020 ft 437 kts 322°
2026-04-26 21:00 -22.13656 -47.78159 30587 ft 433 kts 322°
2026-04-26 21:00 -22.11187 -47.79995 31031 ft 432 kts 322°
2026-04-26 21:00 -22.08672 -47.81867 31400 ft 432 kts 323°
2026-04-26 21:00 -22.06189 -47.83716 31782 ft 432 kts 323°
2026-04-26 21:01 -22.03721 -47.85553 32214 ft 430 kts 323°
2026-04-26 21:01 -22.01263 -47.87382 32669 ft 427 kts 323°
2026-04-26 21:01 -21.98826 -47.89196 33025 ft 427 kts 323°
2026-04-26 21:01 -21.96367 -47.91025 33519 ft 424 kts 323°
2026-04-26 21:02 -21.93949 -47.92821 33975 ft 422 kts 323°
2026-04-26 21:02 -21.91503 -47.94638 34413 ft 420 kts 323°
2026-04-26 21:02 -21.89092 -47.96428 34832 ft 418 kts 323°
2026-04-26 21:02 -21.86702 -47.98204 35200 ft 417 kts 323°
2026-04-26 21:03 -21.84306 -47.99981 35586 ft 415 kts 323°
2026-04-26 21:03 -21.81924 -48.01748 35932 ft 414 kts 323°
2026-04-26 21:03 -21.79522 -48.03530 36037 ft 417 kts 323°
2026-04-26 21:04 -21.74756 -48.07116 36044 ft 414 kts 322°
2026-04-26 21:04 -21.70075 -48.10704 36040 ft 413 kts 322°
2026-04-26 21:05 -21.65340 -48.14333 36037 ft 415 kts 322°
2026-04-26 21:05 -21.60622 -48.17936 36038 ft 415 kts 322°
2026-04-26 21:06 -21.55893 -48.21540 36035 ft 415 kts 322°
2026-04-26 21:06 -21.51158 -48.25144 36028 ft 416 kts 323°
2026-04-26 21:07 -21.46440 -48.28731 36015 ft 416 kts 323°
2026-04-26 21:07 -21.41729 -48.32309 36003 ft 416 kts 323°
2026-04-26 21:08 -21.36972 -48.35918 36004 ft 417 kts 323°
2026-04-26 21:08 -21.32217 -48.39523 36004 ft 416 kts 323°
2026-04-26 21:09 -21.27490 -48.43105 36010 ft 416 kts 323°
2026-04-26 21:09 -21.22783 -48.46668 36012 ft 416 kts 323°
2026-04-26 21:10 -21.18022 -48.50270 36011 ft 418 kts 323°
2026-04-26 21:10 -21.13276 -48.53856 36011 ft 418 kts 323°
2026-04-26 21:11 -21.08547 -48.57428 36006 ft 417 kts 323°
2026-04-26 21:11 -21.03791 -48.61017 36001 ft 417 kts 323°
2026-04-26 21:12 -20.99006 -48.64625 36005 ft 417 kts 323°
2026-04-26 21:12 -20.94253 -48.68206 36006 ft 417 kts 323°
2026-04-26 21:13 -20.89518 -48.71771 36005 ft 417 kts 323°
2026-04-26 21:13 -20.84728 -48.75375 36003 ft 418 kts 323°
2026-04-26 21:14 -20.79951 -48.78966 36004 ft 419 kts 323°
2026-04-26 21:14 -20.75178 -48.82550 36002 ft 419 kts 323°
2026-04-26 21:15 -20.70365 -48.86162 36000 ft 419 kts 323°
2026-04-26 21:15 -20.65574 -48.89754 35998 ft 419 kts 323°
2026-04-26 21:16 -20.60785 -48.93341 35995 ft 420 kts 323°
2026-04-26 21:16 -20.55975 -48.96943 35993 ft 421 kts 323°
2026-04-26 21:17 -20.51188 -49.00525 35992 ft 419 kts 323°
2026-04-26 21:17 -20.46401 -49.04104 35991 ft 418 kts 323°
2026-04-26 21:18 -20.41618 -49.07678 35987 ft 420 kts 323°
2026-04-26 21:18 -20.36813 -49.11264 35984 ft 420 kts 324°
2026-04-26 21:19 -20.31990 -49.14859 35983 ft 421 kts 324°
2026-04-26 21:19 -20.27183 -49.18441 35980 ft 422 kts 324°
2026-04-26 21:20 -20.22354 -49.22036 35977 ft 421 kts 324°
2026-04-26 21:20 -20.17577 -49.25592 35973 ft 422 kts 324°
2026-04-26 21:21 -20.12741 -49.29187 35966 ft 421 kts 324°
2026-04-26 21:21 -20.07920 -49.32767 35962 ft 421 kts 324°
2026-04-26 21:22 -20.03130 -49.36323 35963 ft 422 kts 324°
2026-04-26 21:22 -19.98299 -49.39908 35964 ft 422 kts 324°
2026-04-26 21:23 -19.96687 -49.41104 35963 ft 422 kts 324°
2026-04-26 21:24 -19.81488 -49.52356 35969 ft 422 kts 324°
2026-04-26 21:24 -19.76671 -49.55918 35968 ft 423 kts 324°
2026-04-26 21:25 -19.71817 -49.59504 35971 ft 422 kts 324°
2026-04-26 21:25 -19.66962 -49.63088 35973 ft 424 kts 324°
2026-04-26 21:26 -19.62103 -49.66671 35976 ft 424 kts 324°
2026-04-26 21:26 -19.57260 -49.70241 35982 ft 424 kts 324°
2026-04-26 21:27 -19.52390 -49.73828 35983 ft 425 kts 324°
2026-04-26 21:27 -19.47564 -49.77379 35982 ft 425 kts 324°
2026-04-26 21:28 -19.42687 -49.80966 35987 ft 424 kts 324°
2026-04-26 21:28 -19.37819 -49.84544 35992 ft 425 kts 324°
2026-04-26 21:29 -19.32953 -49.88108 35991 ft 425 kts 325°
2026-04-26 21:29 -19.28048 -49.91602 35992 ft 424 kts 326°
2026-04-26 21:30 -19.23103 -49.95086 35994 ft 426 kts 326°
2026-04-26 21:30 -19.18293 -49.98477 35990 ft 425 kts 326°
2026-04-26 21:31 -19.13346 -50.01969 35987 ft 426 kts 326°
2026-04-26 21:31 -19.08378 -50.05479 35985 ft 427 kts 326°
2026-04-26 21:32 -19.03408 -50.08990 35984 ft 427 kts 326°
2026-04-26 21:32 -18.98445 -50.12493 35982 ft 427 kts 326°
2026-04-26 21:33 -18.93467 -50.16004 35979 ft 428 kts 325°
2026-04-26 21:33 -18.88478 -50.19522 35975 ft 427 kts 325°
2026-04-26 21:34 -18.83508 -50.23025 35978 ft 427 kts 325°
2026-04-26 21:34 -18.78526 -50.26531 35982 ft 428 kts 325°
2026-04-26 21:35 -18.73565 -50.30020 35991 ft 428 kts 325°
2026-04-26 21:35 -18.68562 -50.33537 35990 ft 429 kts 325°
2026-04-26 21:36 -18.64440 -50.36433 35989 ft 428 kts 325°
2026-04-26 21:36 -18.58611 -50.40526 35989 ft 429 kts 325°
2026-04-26 21:37 -18.53622 -50.44024 35985 ft 429 kts 325°
2026-04-26 21:37 -18.48637 -50.47520 35991 ft 428 kts 325°
2026-04-26 21:38 -18.43652 -50.51011 35997 ft 429 kts 325°
2026-04-26 21:38 -18.38645 -50.54516 36008 ft 429 kts 325°
2026-04-26 21:39 -18.33652 -50.58007 36020 ft 431 kts 325°
2026-04-26 21:39 -18.28635 -50.61514 36032 ft 430 kts 325°
2026-04-26 21:40 -18.23665 -50.64984 36045 ft 430 kts 325°
2026-04-26 21:40 -18.18651 -50.68485 36043 ft 431 kts 326°
2026-04-26 21:41 -18.13657 -50.71968 36049 ft 431 kts 326°
2026-04-26 21:41 -18.08607 -50.75487 36049 ft 431 kts 326°
2026-04-26 21:42 -18.03634 -50.78951 36048 ft 431 kts 326°
2026-04-26 21:42 -17.98621 -50.82439 36041 ft 431 kts 326°
2026-04-26 21:43 -17.93592 -50.85938 36045 ft 432 kts 326°
2026-04-26 21:43 -17.88567 -50.89431 36049 ft 433 kts 326°
2026-04-26 21:44 -17.83559 -50.92910 36059 ft 432 kts 326°
2026-04-26 21:44 -17.78524 -50.96404 36065 ft 434 kts 326°
2026-04-26 21:45 -17.73460 -50.99916 36071 ft 434 kts 326°
2026-04-26 21:45 -17.68401 -51.03421 36073 ft 434 kts 326°
2026-04-26 21:46 -17.63375 -51.06902 36075 ft 435 kts 326°
2026-04-26 21:46 -17.58293 -51.10420 36069 ft 435 kts 326°
2026-04-26 21:47 -17.53259 -51.13903 36069 ft 434 kts 326°
2026-04-26 21:47 -17.48178 -51.17416 36074 ft 436 kts 326°
2026-04-26 21:48 -17.43099 -51.20925 36071 ft 435 kts 326°
2026-04-26 21:48 -17.38043 -51.24414 36069 ft 436 kts 326°
2026-04-26 21:49 -17.32955 -51.27924 36069 ft 437 kts 326°
2026-04-26 21:49 -17.27871 -51.31429 36074 ft 437 kts 326°
2026-04-26 21:50 -17.23641 -51.34343 36073 ft 437 kts 326°
2026-04-26 21:50 -17.17709 -51.38426 36065 ft 437 kts 326°
2026-04-26 21:51 -17.12621 -51.41927 36052 ft 438 kts 326°
2026-04-26 21:51 -17.07521 -51.45433 36042 ft 437 kts 326°
2026-04-26 21:52 -17.02417 -51.48940 36033 ft 439 kts 326°
2026-04-26 21:52 -16.97296 -51.52456 36027 ft 437 kts 326°
2026-04-26 21:53 -16.92199 -51.55952 36028 ft 438 kts 326°
2026-04-26 21:53 -16.87107 -51.59444 36030 ft 439 kts 326°
2026-04-26 21:54 -16.81993 -51.62948 36027 ft 438 kts 326°
2026-04-26 21:54 -16.76858 -51.66465 36029 ft 440 kts 326°
2026-04-26 21:55 -16.71724 -51.69978 36029 ft 440 kts 326°
2026-04-26 21:55 -16.66603 -51.73481 36027 ft 440 kts 326°
2026-04-26 21:56 -16.61466 -51.76992 36024 ft 440 kts 326°
2026-04-26 21:56 -16.56332 -51.80498 36022 ft 439 kts 326°
2026-04-26 21:57 -16.51211 -51.83993 36018 ft 441 kts 326°
2026-04-26 21:57 -16.46066 -51.87503 36015 ft 440 kts 326°
2026-04-26 21:58 -16.40931 -51.91003 36010 ft 441 kts 326°
2026-04-26 21:58 -16.35766 -51.94521 36003 ft 442 kts 326°
2026-04-26 21:59 -16.30621 -51.98022 35996 ft 441 kts 326°
2026-04-26 21:59 -16.25480 -52.01520 35986 ft 441 kts 326°
2026-04-26 22:00 -16.20309 -52.05036 35985 ft 441 kts 326°
2026-04-26 22:00 -16.15182 -52.08520 35979 ft 441 kts 326°
2026-04-26 22:01 -16.10007 -52.12033 35967 ft 441 kts 326°
2026-04-26 22:01 -16.04848 -52.15535 35969 ft 442 kts 326°
2026-04-26 22:02 -16.00552 -52.18449 35961 ft 443 kts 326°
2026-04-26 22:02 -15.94524 -52.22535 35952 ft 442 kts 326°
2026-04-26 22:03 -15.89357 -52.26035 35957 ft 442 kts 326°
2026-04-26 22:03 -15.84198 -52.29527 35958 ft 444 kts 326°
2026-04-26 22:04 -15.78999 -52.33044 35964 ft 443 kts 326°
2026-04-26 22:04 -15.73829 -52.36540 35975 ft 443 kts 326°
2026-04-26 22:05 -15.68626 -52.40055 35983 ft 444 kts 326°
2026-04-26 22:05 -15.63442 -52.43556 35991 ft 443 kts 326°
2026-04-26 22:06 -15.58263 -52.47050 35992 ft 443 kts 326°
2026-04-26 22:06 -15.53118 -52.50520 35994 ft 443 kts 326°
2026-04-26 22:07 -15.47879 -52.54052 35990 ft 445 kts 326°
2026-04-26 22:07 -15.42690 -52.57547 35982 ft 444 kts 326°
2026-04-26 22:08 -15.37511 -52.61033 35977 ft 444 kts 326°
2026-04-26 22:08 -15.32302 -52.64537 35977 ft 444 kts 326°
2026-04-26 22:09 -15.27105 -52.68031 35974 ft 444 kts 326°
2026-04-26 22:09 -15.21934 -52.71506 35975 ft 444 kts 326°
2026-04-26 22:10 -15.16714 -52.75011 35973 ft 444 kts 326°
2026-04-26 22:10 -15.11515 -52.78500 35978 ft 445 kts 326°
2026-04-26 22:11 -15.06315 -52.81988 35988 ft 446 kts 326°
2026-04-26 22:11 -15.01096 -52.85487 35988 ft 445 kts 326°
2026-04-26 22:12 -14.95871 -52.88987 35992 ft 446 kts 326°
2026-04-26 22:12 -14.90646 -52.92485 35993 ft 445 kts 326°
2026-04-26 22:13 -14.85439 -52.95969 36000 ft 445 kts 326°
2026-04-26 22:13 -14.80210 -52.99468 36001 ft 445 kts 326°
2026-04-26 22:14 -14.75018 -53.02937 36004 ft 444 kts 326°
2026-04-26 22:14 -14.69813 -53.06414 36008 ft 445 kts 327°
2026-04-26 22:15 -14.64621 -53.09880 36011 ft 445 kts 327°
2026-04-26 22:15 -14.59410 -53.13358 36013 ft 445 kts 327°
2026-04-26 22:16 -14.54207 -53.16828 36013 ft 446 kts 327°
2026-04-26 22:16 -14.48994 -53.20301 36013 ft 444 kts 327°
2026-04-26 22:17 -14.43771 -53.23780 36012 ft 444 kts 327°
2026-04-26 22:17 -14.38589 -53.27230 36012 ft 444 kts 327°
2026-04-26 22:18 -14.33360 -53.30709 36006 ft 445 kts 327°
2026-04-26 22:18 -14.28168 -53.34161 36001 ft 445 kts 327°
2026-04-26 22:19 -14.22939 -53.37636 35995 ft 446 kts 327°
2026-04-26 22:19 -14.17736 -53.41092 35989 ft 446 kts 327°
2026-04-26 22:20 -14.13384 -53.43982 35984 ft 445 kts 327°
2026-04-26 22:20 -14.07277 -53.48033 35976 ft 445 kts 327°
2026-04-26 22:21 -14.02049 -53.51500 35972 ft 445 kts 327°
2026-04-26 22:21 -13.96848 -53.54947 35974 ft 446 kts 327°
2026-04-26 22:22 -13.91618 -53.58411 35976 ft 446 kts 327°
2026-04-26 22:22 -13.86385 -53.61872 35972 ft 447 kts 327°
2026-04-26 22:23 -13.81143 -53.65336 35975 ft 446 kts 327°
2026-04-26 22:23 -13.75904 -53.68796 35973 ft 446 kts 327°
2026-04-26 22:24 -13.70678 -53.72246 35972 ft 446 kts 327°
2026-04-26 22:24 -13.65434 -53.75707 35968 ft 447 kts 327°
2026-04-26 22:25 -13.60209 -53.79153 35964 ft 447 kts 327°
2026-04-26 22:25 -13.54951 -53.82619 35957 ft 446 kts 327°
2026-04-26 22:26 -13.49701 -53.86077 35952 ft 447 kts 327°
2026-04-26 22:26 -13.44469 -53.89523 35949 ft 446 kts 327°
2026-04-26 22:27 -13.39232 -53.92969 35944 ft 446 kts 328°
2026-04-26 22:27 -13.33982 -53.96423 35943 ft 446 kts 328°
2026-04-26 22:28 -13.28729 -53.99876 35942 ft 446 kts 328°
2026-04-26 22:28 -13.23471 -54.03331 35938 ft 447 kts 327°
2026-04-26 22:29 -13.18213 -54.06784 35938 ft 447 kts 327°
2026-04-26 22:29 -13.13003 -54.10205 35938 ft 446 kts 328°
2026-04-26 22:30 -13.07747 -54.13654 35939 ft 446 kts 328°
2026-04-26 22:30 -13.02489 -54.17102 35939 ft 447 kts 328°
2026-04-26 22:31 -12.97278 -54.20517 35937 ft 446 kts 328°
2026-04-26 22:31 -12.92018 -54.23963 35939 ft 447 kts 328°
2026-04-26 22:32 -12.86769 -54.27400 35939 ft 446 kts 328°
2026-04-26 22:32 -12.81514 -54.30839 35941 ft 446 kts 328°
2026-04-26 22:33 -12.73680 -54.35963 35943 ft 446 kts 328°
2026-04-26 22:34 -12.68446 -54.39385 35942 ft 446 kts 328°
2026-04-26 22:34 -12.63200 -54.42812 35942 ft 446 kts 328°
2026-04-26 22:35 -12.58240 -54.46049 35944 ft 447 kts 328°
2026-04-26 22:35 -12.52954 -54.49498 35941 ft 447 kts 328°
2026-04-26 22:36 -12.47702 -54.52925 35943 ft 446 kts 328°
2026-04-26 22:36 -12.42481 -54.56329 35943 ft 447 kts 328°
2026-04-26 22:37 -12.37197 -54.59774 35945 ft 446 kts 328°
2026-04-26 22:37 -12.31912 -54.63215 35948 ft 446 kts 328°
2026-04-26 22:38 -12.26686 -54.66619 35954 ft 446 kts 328°
2026-04-26 22:38 -12.21399 -54.70059 35955 ft 447 kts 328°
2026-04-26 22:39 -12.16141 -54.73479 35961 ft 447 kts 328°
2026-04-26 22:39 -12.10882 -54.76897 35965 ft 449 kts 328°
2026-04-26 22:40 -12.05565 -54.80351 35967 ft 449 kts 328°
2026-04-26 22:40 -12.00294 -54.83773 35967 ft 448 kts 328°
2026-04-26 22:41 -11.95014 -54.87201 35965 ft 447 kts 328°
2026-04-26 22:41 -11.89732 -54.90630 35960 ft 448 kts 328°
2026-04-26 22:42 -11.84478 -54.94038 35956 ft 450 kts 328°
2026-04-26 22:42 -11.79153 -54.97490 35955 ft 450 kts 328°
2026-04-26 22:43 -11.73865 -55.00917 35955 ft 450 kts 328°
2026-04-26 22:43 -11.68581 -55.04339 35954 ft 450 kts 328°
2026-04-26 22:44 -11.63305 -55.07755 35953 ft 449 kts 328°
2026-04-26 22:44 -11.58010 -55.11181 35954 ft 449 kts 328°
2026-04-26 22:45 -11.52701 -55.14615 35956 ft 450 kts 328°
2026-04-26 22:45 -11.47395 -55.18045 35958 ft 450 kts 328°
2026-04-26 22:46 -11.42138 -55.21442 35957 ft 450 kts 328°
2026-04-26 22:46 -11.36829 -55.24871 35953 ft 449 kts 328°
2026-04-26 22:47 -11.31534 -55.28290 35946 ft 449 kts 328°
2026-04-26 22:47 -11.26266 -55.31688 35939 ft 449 kts 328°
2026-04-26 22:48 -11.20983 -55.35095 35936 ft 450 kts 328°
2026-04-26 22:48 -11.15670 -55.38521 35938 ft 450 kts 328°
2026-04-26 22:49 -11.10390 -55.41926 35938 ft 450 kts 328°
2026-04-26 22:49 -11.05056 -55.45362 35937 ft 450 kts 328°
2026-04-26 22:50 -10.99763 -55.48769 35935 ft 449 kts 328°
2026-04-26 22:50 -10.94449 -55.52189 35939 ft 450 kts 328°
2026-04-26 22:51 -10.89172 -55.55584 35944 ft 450 kts 328°
2026-04-26 22:51 -10.83874 -55.58992 35954 ft 450 kts 328°
2026-04-26 22:52 -10.78552 -55.62412 35960 ft 451 kts 328°
2026-04-26 22:52 -10.73255 -55.65815 35964 ft 451 kts 328°
2026-04-26 22:53 -10.67934 -55.69233 35965 ft 450 kts 328°
2026-04-26 22:53 -10.62649 -55.72627 35962 ft 451 kts 329°
2026-04-26 22:54 -10.57348 -55.76029 35960 ft 450 kts 328°
2026-04-26 22:54 -10.52056 -55.79424 35953 ft 450 kts 328°
2026-04-26 22:55 -10.46743 -55.82830 35945 ft 450 kts 328°
2026-04-26 22:55 -10.41434 -55.86233 35942 ft 450 kts 328°
2026-04-26 22:56 -10.36081 -55.89663 35940 ft 451 kts 328°
2026-04-26 22:56 -10.30784 -55.93054 35938 ft 450 kts 328°
2026-04-26 22:57 -10.25444 -55.96471 35936 ft 450 kts 329°
2026-04-26 22:57 -10.20158 -55.99854 35935 ft 450 kts 328°
2026-04-26 22:58 -10.14853 -56.03249 35933 ft 451 kts 328°
2026-04-26 22:58 -10.09506 -56.06668 35928 ft 450 kts 328°
2026-04-26 22:59 -10.04219 -56.10046 35928 ft 451 kts 328°
2026-04-26 22:59 -9.98892 -56.13449 35927 ft 450 kts 328°
2026-04-26 23:00 -9.93699 -56.16766 35924 ft 450 kts 328°
2026-04-26 23:00 -9.90899 -56.18554 35925 ft 451 kts 328°
2026-04-26 23:01 -9.85824 -56.21791 35923 ft 452 kts 328°
2026-04-26 23:01 -9.82244 -56.24077 35924 ft 451 kts 328°
2026-04-26 23:02 -9.79048 -56.26116 35920 ft 451 kts 328°
2026-04-26 23:02 -9.73723 -56.29511 35909 ft 450 kts 329°
2026-04-26 23:03 -9.70489 -56.31580 35909 ft 451 kts 328°
2026-04-26 23:03 -9.65455 -56.34877 35928 ft 451 kts 328°
2026-04-26 23:04 -9.62146 -56.37069 35923 ft 451 kts 328°
2026-04-26 23:04 -9.57641 -56.40057 35922 ft 451 kts 328°
2026-04-26 23:05 -9.53729 -56.42647 35919 ft 452 kts 328°
2026-04-26 23:05 -9.51995 -56.43793 36712 ft 452 kts 326°
2026-04-26 23:05 -9.49318 -56.45569 36318 ft 453 kts 327°
2026-04-26 23:05 -9.47189 -56.46976 36083 ft 446 kts 327°
2026-04-26 23:06 -9.46107 -56.47687 35195 ft 440 kts 328°
2026-04-26 23:06 -9.43553 -56.49354 35668 ft 432 kts 328°
2026-04-26 23:06 -9.41019 -56.51017 35876 ft 433 kts 328°
2026-04-26 23:07 -9.35931 -56.54371 35905 ft 443 kts 328°
2026-04-26 23:07 -9.30701 -56.57818 35913 ft 452 kts 328°
2026-04-26 23:08 -9.25413 -56.61302 35918 ft 451 kts 328°
2026-04-26 23:08 -9.20138 -56.64774 35924 ft 451 kts 328°
2026-04-26 23:09 -9.14891 -56.68224 35922 ft 451 kts 328°
2026-04-26 23:09 -9.09599 -56.71703 35919 ft 452 kts 328°
2026-04-26 23:10 -9.04334 -56.75163 35917 ft 451 kts 328°
2026-04-26 23:10 -8.99082 -56.78611 35923 ft 451 kts 328°
2026-04-26 23:11 -8.93840 -56.82052 35931 ft 450 kts 329°
2026-04-26 23:11 -8.88561 -56.85518 35925 ft 450 kts 328°
2026-04-26 23:12 -8.83305 -56.88966 35915 ft 450 kts 328°
2026-04-26 23:12 -8.78065 -56.92405 35914 ft 450 kts 328°
2026-04-26 23:13 -8.73019 -56.95713 35916 ft 450 kts 328°
2026-04-26 23:13 -8.67743 -56.99171 35911 ft 449 kts 328°
2026-04-26 23:14 -8.62497 -57.02607 35923 ft 450 kts 329°
2026-04-26 23:14 -8.57253 -57.06041 35924 ft 450 kts 328°
2026-04-26 23:15 -8.52011 -57.09473 35930 ft 451 kts 328°
2026-04-26 23:15 -8.46721 -57.12935 35934 ft 451 kts 328°
2026-04-26 23:16 -8.41466 -57.16374 35940 ft 451 kts 328°
2026-04-26 23:16 -8.36218 -57.19806 35941 ft 450 kts 328°
2026-04-26 23:17 -8.30937 -57.23258 35944 ft 451 kts 328°
2026-04-26 23:17 -8.25661 -57.26707 35950 ft 451 kts 328°
2026-04-26 23:18 -8.20407 -57.30141 35940 ft 451 kts 329°
2026-04-26 23:18 -8.15113 -57.33601 35932 ft 451 kts 329°
2026-04-26 23:19 -8.09850 -57.37038 35927 ft 450 kts 328°
2026-04-26 23:19 -8.04599 -57.40465 35917 ft 451 kts 329°
2026-04-26 23:20 -7.99231 -57.43742 35903 ft 448 kts 339°
2026-04-26 23:20 -7.96234 -57.44594 35916 ft 445 kts 352°
2026-04-26 23:20 -7.93168 -57.44943 35912 ft 445 kts 358°
2026-04-26 23:21 -7.86982 -57.45204 35906 ft 444 kts 357°
2026-04-26 23:21 -7.83910 -57.45828 35907 ft 448 kts 342°
2026-04-26 23:21 -7.81072 -57.47128 35913 ft 450 kts 333°
2026-04-26 23:22 -7.75775 -57.50531 35906 ft 452 kts 327°
2026-04-26 23:22 -7.71041 -57.54694 35903 ft 454 kts 320°
2026-04-26 23:23 -7.65882 -57.58353 35909 ft 451 kts 331°
2026-04-26 23:23 -7.60452 -57.61587 35912 ft 451 kts 331°
2026-04-26 23:24 -7.55097 -57.64868 35913 ft 452 kts 330°
2026-04-26 23:24 -7.49772 -57.68282 35912 ft 453 kts 329°
2026-04-26 23:25 -7.44471 -57.71781 35915 ft 453 kts 328°
2026-04-26 23:25 -7.39220 -57.75293 35917 ft 453 kts 328°
2026-04-26 23:26 -7.33934 -57.78847 35920 ft 453 kts 328°
2026-04-26 23:26 -7.28927 -57.82217 35922 ft 453 kts 328°
2026-04-26 23:27 -7.23698 -57.85738 35922 ft 453 kts 328°
2026-04-26 23:27 -7.18423 -57.89291 35921 ft 454 kts 328°
2026-04-26 23:28 -7.13156 -57.92838 35920 ft 454 kts 328°
2026-04-26 23:28 -7.07885 -57.96385 35917 ft 454 kts 328°
2026-04-26 23:29 -7.02636 -57.99918 35913 ft 454 kts 328°
2026-04-26 23:29 -6.97321 -58.03494 35915 ft 454 kts 328°
2026-04-26 23:30 -6.92063 -58.07030 35917 ft 454 kts 328°
2026-04-26 23:30 -6.86779 -58.10582 35918 ft 455 kts 328°
2026-04-26 23:31 -6.81483 -58.14142 35916 ft 455 kts 328°
2026-04-26 23:31 -6.76192 -58.17697 35918 ft 455 kts 328°
2026-04-26 23:32 -6.70922 -58.21237 35915 ft 455 kts 328°
2026-04-26 23:32 -6.65658 -58.24775 35910 ft 455 kts 328°
2026-04-26 23:33 -6.60363 -58.28335 35908 ft 456 kts 328°
2026-04-26 23:33 -6.55081 -58.31881 35909 ft 455 kts 328°
2026-04-26 23:34 -6.49794 -58.35426 35913 ft 456 kts 328°
2026-04-26 23:34 -6.44497 -58.38978 35913 ft 456 kts 328°
2026-04-26 23:35 -6.39212 -58.42521 35913 ft 457 kts 328°
2026-04-26 23:35 -6.33921 -58.46067 35912 ft 456 kts 328°
2026-04-26 23:36 -6.28604 -58.49632 35912 ft 457 kts 328°
2026-04-26 23:36 -6.23271 -58.53204 35911 ft 457 kts 328°
2026-04-26 23:37 -6.18004 -58.56732 35907 ft 456 kts 328°
2026-04-26 23:37 -6.12708 -58.60280 35901 ft 458 kts 328°
2026-04-26 23:38 -6.07396 -58.63837 35896 ft 457 kts 328°
2026-04-26 23:38 -6.02084 -58.67394 35897 ft 458 kts 328°
2026-04-26 23:39 -5.96783 -58.70943 35900 ft 459 kts 328°
2026-04-26 23:39 -5.91456 -58.74508 35903 ft 458 kts 328°
2026-04-26 23:40 -5.86115 -58.78083 35910 ft 458 kts 328°
2026-04-26 23:40 -5.80846 -58.81608 35914 ft 457 kts 328°
2026-04-26 23:41 -5.75532 -58.85161 35913 ft 458 kts 328°
2026-04-26 23:41 -5.70227 -58.88707 35914 ft 457 kts 328°
2026-04-26 23:42 -5.64907 -58.92262 35915 ft 458 kts 328°
2026-04-26 23:42 -5.56959 -58.97574 35914 ft 456 kts 328°
2026-04-26 23:43 -5.51647 -59.01122 35915 ft 457 kts 328°
2026-04-26 23:43 -5.46350 -59.04659 35914 ft 457 kts 328°
2026-04-26 23:44 -5.41041 -59.08206 35914 ft 457 kts 328°
2026-04-26 23:44 -5.35747 -59.11738 35913 ft 456 kts 328°
2026-04-26 23:45 -5.30482 -59.15253 35912 ft 456 kts 328°
2026-04-26 23:45 -5.25189 -59.18785 35904 ft 457 kts 328°
2026-04-26 23:46 -5.19868 -59.22335 35897 ft 457 kts 328°
2026-04-26 23:46 -5.14580 -59.25862 35895 ft 457 kts 328°
2026-04-26 23:47 -5.09241 -59.29425 35890 ft 457 kts 328°
2026-04-26 23:47 -5.03970 -59.32939 35890 ft 456 kts 328°
2026-04-26 23:48 -4.98652 -59.36485 35889 ft 456 kts 328°
2026-04-26 23:48 -4.93354 -59.40015 35889 ft 456 kts 328°
2026-04-26 23:49 -4.88063 -59.43541 35888 ft 457 kts 328°
2026-04-26 23:49 -4.82757 -59.47076 35888 ft 457 kts 328°
2026-04-26 23:50 -4.77440 -59.50618 35888 ft 457 kts 329°
2026-04-26 23:50 -4.72135 -59.54152 35860 ft 455 kts 328°
2026-04-26 23:51 -4.69517 -59.55896 35514 ft 451 kts 328°
2026-04-26 23:51 -4.66902 -59.57639 34926 ft 449 kts 329°
2026-04-26 23:51 -4.64290 -59.59378 34235 ft 449 kts 329°
2026-04-26 23:51 -4.61717 -59.61091 33695 ft 445 kts 329°
2026-04-26 23:52 -4.59160 -59.62795 33206 ft 443 kts 329°
2026-04-26 23:52 -4.56570 -59.64519 32674 ft 449 kts 329°
2026-04-26 23:52 -4.53962 -59.66253 32154 ft 450 kts 329°
2026-04-26 23:52 -4.51329 -59.68004 31606 ft 447 kts 329°
2026-04-26 23:53 -4.48766 -59.69711 31076 ft 444 kts 329°
2026-04-26 23:53 -4.46165 -59.71443 30534 ft 441 kts 329°
2026-04-26 23:53 -4.43645 -59.73121 30006 ft 438 kts 329°
2026-04-26 23:53 -4.41088 -59.74824 29473 ft 435 kts 329°
2026-04-26 23:54 -4.38560 -59.76507 28942 ft 432 kts 329°
2026-04-26 23:54 -4.36094 -59.78148 28429 ft 429 kts 329°
2026-04-26 23:54 -4.33595 -59.79810 27905 ft 427 kts 329°
2026-04-26 23:54 -4.31112 -59.81462 27378 ft 424 kts 329°
2026-04-26 23:55 -4.28677 -59.83080 26859 ft 422 kts 329°
2026-04-26 23:55 -4.26225 -59.84712 26331 ft 419 kts 329°
2026-04-26 23:55 -4.23814 -59.86315 25813 ft 417 kts 329°
2026-04-26 23:55 -4.21397 -59.87922 25290 ft 414 kts 329°
2026-04-26 23:56 -4.18995 -59.89519 24768 ft 412 kts 329°
2026-04-26 23:56 -4.16626 -59.91094 24250 ft 409 kts 329°
2026-04-26 23:56 -4.14278 -59.92655 23733 ft 407 kts 329°
2026-04-26 23:56 -4.11886 -59.94199 23218 ft 403 kts 330°
2026-04-26 23:57 -4.09472 -59.95547 22712 ft 399 kts 337°
2026-04-26 23:57 -4.06918 -59.96595 22203 ft 394 kts 343°
2026-04-26 23:57 -4.04289 -59.97442 21688 ft 391 kts 346°
2026-04-26 23:57 -4.01694 -59.98190 21179 ft 388 kts 347°
2026-04-26 23:58 -3.99112 -59.98911 20671 ft 386 kts 347°
2026-04-26 23:58 -3.96506 -59.99643 20152 ft 384 kts 346°
2026-04-26 23:58 -3.93960 -60.00368 19643 ft 382 kts 346°
2026-04-26 23:58 -3.91414 -60.01105 19131 ft 380 kts 346°
2026-04-26 23:59 -3.88871 -60.01849 18616 ft 378 kts 346°
2026-04-26 23:59 -3.86340 -60.02597 18102 ft 376 kts 345°
2026-04-26 23:59 -3.83861 -60.03334 17598 ft 373 kts 345°
2026-04-26 23:59 -3.81367 -60.04078 17092 ft 371 kts 345°
2026-04-27 00:00 -3.78899 -60.04817 16587 ft 369 kts 345°
2026-04-27 00:00 -3.76444 -60.05553 16080 ft 367 kts 345°
2026-04-27 00:00 -3.74012 -60.06281 15579 ft 365 kts 345°
2026-04-27 00:00 -3.71555 -60.07017 15070 ft 363 kts 345°
2026-04-27 00:01 -3.69154 -60.07737 14570 ft 361 kts 345°
2026-04-27 00:01 -3.66750 -60.08457 14069 ft 358 kts 345°
2026-04-27 00:01 -3.64357 -60.09173 13565 ft 356 kts 345°
2026-04-27 00:01 -3.61994 -60.09881 13070 ft 354 kts 345°
2026-04-27 00:02 -3.59653 -60.10581 12578 ft 351 kts 346°
2026-04-27 00:02 -3.57299 -60.11284 12082 ft 349 kts 345°
2026-04-27 00:02 -3.54968 -60.11982 11589 ft 346 kts 346°
2026-04-27 00:02 -3.52677 -60.12667 11106 ft 344 kts 345°
2026-04-27 00:03 -3.50396 -60.13350 10620 ft 342 kts 346°
2026-04-27 00:03 -3.48127 -60.14029 10190 ft 337 kts 346°
2026-04-27 00:03 -3.45902 -60.14696 10009 ft 325 kts 345°
2026-04-27 00:03 -3.43755 -60.15339 9751 ft 317 kts 345°
2026-04-27 00:04 -3.41640 -60.15972 9322 ft 315 kts 345°
2026-04-27 00:04 -3.39536 -60.16600 8910 ft 312 kts 345°
2026-04-27 00:04 -3.37484 -60.17213 8512 ft 309 kts 345°
2026-04-27 00:04 -3.35404 -60.17838 8128 ft 306 kts 345°
2026-04-27 00:05 -3.33358 -60.18450 7730 ft 303 kts 346°
2026-04-27 00:05 -3.31344 -60.19051 7345 ft 300 kts 345°
2026-04-27 00:05 -3.29368 -60.19640 6986 ft 297 kts 345°
2026-04-27 00:05 -3.27372 -60.20237 6603 ft 295 kts 346°
2026-04-27 00:06 -3.25385 -60.20829 6198 ft 293 kts 346°
2026-04-27 00:06 -3.23417 -60.21309 5889 ft 287 kts 350°
2026-04-27 00:06 -3.21495 -60.21658 5753 ft 274 kts 353°
2026-04-27 00:06 -3.19642 -60.21947 5659 ft 262 kts 353°
2026-04-27 00:07 -3.17883 -60.22219 5658 ft 247 kts 353°
2026-04-27 00:07 -3.16215 -60.22487 5623 ft 234 kts 353°
2026-04-27 00:07 -3.14641 -60.22744 5607 ft 222 kts 353°
2026-04-27 00:07 -3.13144 -60.22905 5493 ft 211 kts
2026-04-27 00:08 -3.11670 -60.22908 5086 ft 214 kts
2026-04-27 00:08 -3.10154 -60.22873 4528 ft 220 kts
2026-04-27 00:08 -3.08610 -60.22858 3983 ft 225 kts
2026-04-27 00:08 -3.07053 -60.22851 3606 ft 220 kts
2026-04-27 00:09 -3.05608 -60.22651 3555 ft 197 kts 22°
2026-04-27 00:09 -3.04554 -60.21887 3459 ft 181 kts 52°
2026-04-27 00:09 -3.04085 -60.20751 3182 ft 180 kts 79°
2026-04-27 00:09 -3.03962 -60.19499 2822 ft 183 kts 83°
2026-04-27 00:10 -3.03891 -60.18233 2571 ft 179 kts 85°
2026-04-27 00:10 -3.03866 -60.16995 2336 ft 177 kts 87°
2026-04-27 00:10 -3.03858 -60.15766 2102 ft 180 kts 88°
2026-04-27 00:10 -3.03855 -60.14533 1877 ft 172 kts 89°
2026-04-27 00:11 -3.03855 -60.13379 1643 ft 158 kts 89°
2026-04-27 00:11 -3.03853 -60.12313 1458 ft 150 kts 89°
2026-04-27 00:11 -3.03856 -60.11254 1262 ft 156 kts 89°
2026-04-27 00:11 -3.03857 -60.10157 1054 ft 158 kts 89°
2026-04-27 00:12 -3.03855 -60.09062 842 ft 160 kts 89°
2026-04-27 00:12 -3.03862 -60.07950 633 ft 159 kts 89°
2026-04-27 00:12 -3.03861 -60.06834 443 ft 160 kts 90°
2026-04-27 00:12 -3.03860 -60.05722 273 ft 153 kts 90°
2026-04-27 00:13 -3.03862 -60.04818 269 ft 99 kts 90°
2026-04-27 00:13 -3.03861 -60.04334 269 ft 45 kts 91°
2026-04-27 00:13 -3.03865 -60.04104 269 ft 28 kts 90°
2026-04-27 00:13 -3.03863 -60.03898 269 ft 29 kts 89°
2026-04-27 00:14 -3.03821 -60.03775 269 ft 15 kts 21°
2026-04-27 00:14 -3.03723 -60.03785 269 ft 16 kts 329°
2026-04-27 00:14 -3.03670 -60.03914 269 ft 24 kts 285°
2026-04-27 00:14 -3.03628 -60.04073 269 ft 19 kts 284°
2026-04-27 00:15 -3.03595 -60.04189 269 ft 15 kts 290°
2026-04-27 00:15 -3.03546 -60.04279 269 ft 13 kts 310°
2026-04-27 00:15 -3.03478 -60.04338 269 ft 12 kts 326°
2026-04-27 00:15 -3.03403 -60.04372 269 ft 11 kts 344°
2026-04-27 00:16 -3.03338 -60.04400 269 ft 9 kts 303°
2026-04-27 00:16 -3.03335 -60.04458 269 ft 7 kts 255°
2026-04-27 00:16 -3.03346 -60.04503 269 ft 6 kts 260°
2026-04-27 00:16 -3.03351 -60.04541 269 ft 5 kts 263°
2026-04-27 00:17 -3.03355 -60.04573 269 ft 4 kts 267°
2026-04-27 00:17 -3.03356 -60.04601 269 ft 3 kts 268°
2026-04-27 00:17 -3.03342 -60.04623 269 ft 5 kts 344°
2026-04-27 00:17 -3.03301 -60.04624 269 ft 3 kts
2026-04-27 00:18 -3.03283 -60.04623 269 ft 1 kts
2026-04-27 00:18 -3.03276 -60.04623 269 ft 0 kts